Weather Service Report


154 
ASUS44 KEWX 010710
RWRTX 
SOUTH TEXAS REGIONAL WEATHER ROUNDUP
NATIONAL WEATHER SERVICE AUSTIN/SAN ANTONIO TX
100 AM CST SUN MAR 01 2015

NOTE: "FAIR" INDICATED FEW OR NO CLOUDS BELOW 12,000 FEET WITH NO
SIGNIFICANT WEATHER AND/OR OBSTRUCTIONS TO VISIBILITY.

* - THESE STATIONS ARE NOT NWS OR FAA STATIONS...AND ARE NOT SUBJECT
    TO NWS AND FAA QUALITY CONTROL.
 
TXZ171-172-183>190-010800-
TEXAS HILL COUNTRY AND EDWARDS PLATEAU
  
CITY           SKY/WX    TMP DP  RH WIND       PRES   REMARKS
JUNCTION       CLOUDY    33  32  96 E5        30.21F FOG     WCI  29  
*LLANO         CLOUDY    34  34 100 CALM      30.29F FOG              
BURNET         CLOUDY    32  32 100 N6        30.26F FOG     WCI  26  
*HORSESHOE BAY CLOUDY    34  34 100 NW6       30.26F WCI  29          
*KERRVILLE     DRIZZLE   34  33  96 NW3       30.22S                  
*FREDERICKSBRG CLOUDY    32  32  99 CALM      30.22S FOG              
*ROCKSPRINGS   FOG       36  36 100 E6        30.19F VSB 3/4 WCI  31  
*BOERNE STAGE  CLOUDY    36  34  93 N7        30.22F WCI  30          
*CASTROVILLE   CLOUDY    42  42  99 CALM      30.22F FOG              
HONDO          LGT RAIN  42  32  67 N8        30.22F WCI  37          
*UVALDE        CLOUDY    42  42  99 CALM      30.21F FOG              
DEL RIO        CLOUDY    43  42  97 SE6       30.19F FOG     WCI  39  
LAUGHLIN AFB   CLOUDY    43  43 100 SE8       30.19F FOG     WCI  38  
CARRIZO SPRGS  CLOUDY    41  41 100 CALM      30.21F FOG              
$$

TXZ173-191>194-202-209-217>225-228-010800-
CENTRAL AND SOUTH CENTRAL TEXAS
  
CITY           SKY/WX    TMP DP  RH WIND       PRES   REMARKS
GEORGETOWN     CLOUDY    34  32  93 N9        30.26F WCI  26          
AUSTIN/BERGSTM DRIZZLE   35  35 100 N12       30.26S FOG     WCI  27  
AUSTIN/MABRY   CLOUDY    36  35  96 N5        30.27S FOG     WCI  32  
*AUSTIN/EXEC   CLOUDY    36  34  93 N10       30.27R FOG     WCI  28  
*LAGO VISTA    MIX PCPN  34  33  96 N6        30.24F WCI  28          
SAN MARCOS     CLOUDY    36  34  93 N14       30.24F WCI  27          
NEW BRAUNFELS  LGT RAIN  38  38 100 N10       30.21F FOG     WCI  31  
RANDOLPH AFB   LGT RAIN  38  37  96 N9        30.21S WCI  32          
PT SAN ANTONIO CLOUDY    40  39  98 NE7       30.18F WCI  35          
SAN ANTONIO    LGT RAIN  39  37  92 N9        30.21F FOG     WCI  33  
STINSON FIELD  LGT RAIN  40  38  93 N9        30.20S FOG     WCI  34  
*PLEASANTON    DRIZZLE   39  38  97 N3        30.23R                  
*LA GRANGE     DRIZZLE   40  40  97 N7        30.22S WCI  36          
*GIDDINGS      RAIN      37  37  97 N6        30.27S WCI  33          
*GONZALES      HVY RAIN  39  38  98 N13       30.22S WCI  31          
$$

TXZ163>164-176>182-195>201-210>213-226-227-235-010800-
SOUTHEAST TEXAS
  
CITY           SKY/WX    TMP DP  RH WIND       PRES   REMARKS
COLLEGE STN    CLOUDY    41  39  93 N9        30.24F FOG     WCI  35  
*BRYAN         CLOUDY    39  39  98 N6        30.26F FOG     WCI  35  
*CALDWELL      DRIZZLE   37  37 100 N7        30.28S WCI  32          
*CROCKETT      CLOUDY    46  45  93 NE7       30.28F WCI  43          
*BRENHAM       LGT RAIN  44  42  95 N6        30.24F WCI  40          
HUNTSVILLE     CLOUDY    45  44  97 VRB3      30.23F                  
CONROE         CLOUDY    50  47  89 CALM      30.22F                  
HOUSTON BUSH   CLOUDY    52  51  97 E5        30.21F                  
HOUSTON HOBBY  DRIZZLE   57  56  96 E7        30.20F FOG              
*HOUSTON SW AP NOT AVBL                                               
PEARLAND       CLOUDY    57  55  93 E12G25    30.21F FOG              
HOUSTON HOOKS  CLOUDY    52  50  93 NE3       30.21F FOG              
ELLINGTON FLD  CLOUDY    57  55  94 E8        30.21F FOG              
SUGAR LAND     CLOUDY    56  55  97 E7        30.19F FOG              
*HOUSTON EXEC  LGT RAIN  50  50 100 N7        30.22S WCI  47          
*CLEVELAND MUN LGT RAIN  52  48  87 CALM      30.23S                  
*WHARTON       DRIZZLE   55  54  97 N6        30.19S                  
*COLUMBUS      DRIZZLE   45  45  99 N6        30.20F WCI  42          
$$

TXZ214>216-236>238-010800-
THE UPPER TEXAS COAST
  
CITY           SKY/WX    TMP DP  RH WIND       PRES   REMARKS
*ORANGE        CLOUDY    58  54  84 E7        30.24F                  
PORT ARTHUR    CLOUDY    59  54  83 SE12      30.22F                  
GALVESTON      CLOUDY    58  58 100 E12       30.20F FOG              
ANGLETON       FOG       57  57 100 E9        30.17F VSB 3/4          
*BAY CITY      FOG       58  58 100 NE7       30.16F VSB 3/4          
PALACIOS       FOG       57  56  96 NE10      30.15F VSB 1/2          
$$

TXZ229>234-239>247-010800-
TEXAS COASTAL BEND AND RIO GRANDE PLAINS
  
CITY           SKY/WX    TMP DP  RH WIND       PRES   REMARKS
VICTORIA       LGT RAIN  50  49  96 N8        30.18F FOG     WCI  47  
*BEEVILLE      DRIZZLE   44  44 100 N7        30.18R WCI  40          
ROCKPORT       LGT RAIN  54  53  97 N10       30.14F FOG              
*PORT ARANSAS  CLOUDY    54  54 100 N10       30.14S FOG              
*PORT LAVACA   DRIZZLE   52  52  99 N9        30.16F                  
*INGLESIDE     RAIN      46  45  97 N8        30.14F WCI  41          
CORPUS CHRISTI DRIZZLE   51  50  96 N9        30.15F FOG              
CORPUS NAS     LGT RAIN  53  53 100 N10       30.14F FOG              
*ROBSTOWN      NOT AVBL                                               
ALICE          NOT AVBL                                               
KINGSVILLE NAS CLOUDY    47  47 100 NW9       30.17S WCI  43          
COTULLA        CLOUDY    42  40  92 N5        30.21F FOG     WCI  39  
*FAITH RANCH   CLOUDY    41  41 100 NE5       30.22S WCI  38          
LAREDO         LGT RAIN  42  42 100 N8        30.22F FOG     WCI  37  
$$

TXZ248>255-010800-
DEEP SOUTH TEXAS
  
CITY           SKY/WX    TMP DP  RH WIND       PRES   REMARKS
BROWNSVILLE    LGT RAIN  51  49  92 NW10      30.15F FOG              
PORT ISABEL    CLOUDY    51  51 100 NW10      30.14F FOG              
*SOUTH PADRE     N/A     52  52 100 NW10      30.14S VSB 3/4          
HARLINGEN      CLOUDY    50  49  96 NW10      30.15F WCI  46          
*HEBBRONVILLE  HVY RAIN N/A N/A N/A NW9       30.19R                  
MCALLEN        CLOUDY    48  46  93 NW9       30.18F FOG     WCI  44  
*WESLACO       CLOUDY    48  46  93 NW8       30.17F FOG     WCI  45  
FALFURRIAS     CLOUDY    46  44  93 NW6       30.17F WCI  43          
EDINBURG       CLOUDY    49  46  92 NW6       30.18F FOG     WCI  46  
*ZAPATA        CLOUDY    44  44 100 N5        30.19F FOG     WCI  41  
$$

TXZ213>215-236>238-242>244-246-247-251-254-255-010800-
CMAN STATIONS
  
STATION/POSITION TIME  TEMP    WIND        PRES    WAVE
                       AIR SEA DIR/SP/G            HT/PER
                 (UTC) (F)     (DEG/KT/KT) (MB)    (FT/S)
SABINE PASS      0700   56 52  120/ 15/ 19 1023.0
SEA RIM ST PARK  0700   55     110/ 12/ 14 1023.5
NORTH JETTY/GLS  0700   56 52  110/ 13/ 14   N/A
EAGLE POINT      0700   53 46  100/  5/  7 1022.9
MORGANS POINT    0700   57 53  100/  6/  9 1022.9
MISSION/ARANSAS  0600   53     VRB  9      1022.0
PORT O'CONNOR    0700          350/  8/  8   N/A
PORT ARANSAS     0700   54 55  350/  9/ 11 1020.5
MALAQUITE BEACH  0700   54 56  320/  9/ 12 1020.0
BAFFIN BAY       0700   50     310/ 11/ 12 1020.8
PORT ISABEL      0700   51 58  300/  7/ 10 1020.6
$$

GMZ080-GMZ150>470-010800-
OFFSHORE BUOY REPORTS
  
STATION/POSITION TIME  TEMP    WIND        PRES    WAVE
                       AIR SEA DIR/SP/G            HT/PER
                 (UTC) (F)     (DEG/KT/KT) (MB)    (FT/S)
20 E GALVESTON   0700   59 56  100/ 14/ 16 1021.9    5/ 5
90 E PT ARANSAS  0700   68 67  100/ 12/ 14 1020.4    6/ 9
35 NE PT MANSFLD 0700   62 67  300/ 10/ 10 1019.6    7/ 9
200 E PT ISABEL  0700   71 70  140/ 16/ 17 1020.3    7/ 8
$$

Return to Home page


Western Regional Climate Center, wrcc@dri.edu